Time,TemperatureF,DewpointF,PressureIn,WindDirection,WindDirectionDegrees,WindSpeedMPH,WindSpeedGustMPH,Humidity,HourlyPrecipIn,Conditions,Clouds,dailyrainin,SoftwareType,DateUTC
2013-02-24 00:00:00,0.3,-13.1,29.96,SW,228,0.0,0.0,52,0.00,,SKC,0.00,VWS V14.01,2013-02-24 06:00:00,
2013-02-24 00:05:00,0.7,-12.8,29.96,SW,228,0.0,0.0,52,0.00,,SKC,0.00,VWS V14.01,2013-02-24 06:05:00,
2013-02-24 00:10:00,0.5,-13.0,29.96,SW,228,0.0,0.0,52,0.00,,SKC,0.00,VWS V14.01,2013-02-24 06:10:00,
2013-02-24 00:15:00,0.3,-13.1,29.96,SW,228,5.6,5.6,52,0.00,,SKC,0.00,VWS V14.01,2013-02-24 06:15:00,
2013-02-24 00:20:00,-0.6,-14.0,29.96,SW,228,4.0,4.0,52,0.00,,SKC,0.00,VWS V14.01,2013-02-24 06:20:00,
2013-02-24 00:25:00,-0.9,-14.3,29.96,SW,228,5.6,5.6,52,0.00,,SKC,0.00,VWS V14.01,2013-02-24 06:25:00,
2013-02-24 00:30:00,-0.9,-14.3,29.96,SW,228,0.0,0.0,52,0.00,,SKC,0.00,VWS V14.01,2013-02-24 06:30:00,
2013-02-24 00:35:00,-0.8,-14.1,29.96,SW,228,0.0,0.0,52,0.00,,SKC,0.00,VWS V14.01,2013-02-24 06:35:00,
2013-02-24 00:40:00,-0.4,-13.8,29.96,SW,228,4.8,4.8,52,0.00,,SKC,0.00,VWS V14.01,2013-02-24 06:40:00,
2013-02-24 00:45:00,-0.2,-13.6,29.96,SW,228,0.0,0.0,52,0.00,,SKC,0.00,VWS V14.01,2013-02-24 06:45:00,
2013-02-24 00:50:00,0.1,-13.3,29.96,SW,228,0.0,0.0,52,0.00,,SKC,0.00,VWS V14.01,2013-02-24 06:50:00,
2013-02-24 00:55:00,0.3,-13.1,29.96,SW,228,0.0,0.0,52,0.00,,SKC,0.00,VWS V14.01,2013-02-24 06:55:00,
2013-02-24 01:00:00,0.3,-13.1,29.96,SW,228,0.0,0.0,52,0.00,,SKC,0.00,VWS V14.01,2013-02-24 07:00:00,
2013-02-24 01:05:00,0.3,-13.1,29.96,SW,228,0.0,0.0,52,0.00,,SKC,0.00,VWS V14.01,2013-02-24 07:05:00,
2013-02-24 01:10:00,0.7,-12.8,29.96,SW,228,4.0,4.8,52,0.00,,SKC,0.00,VWS V14.01,2013-02-24 07:10:00,
2013-02-24 01:15:00,0.7,-12.8,29.96,SW,228,0.0,0.0,52,0.00,,SKC,0.00,VWS V14.01,2013-02-24 07:15:00,
2013-02-24 01:20:00,0.7,-12.8,29.96,SW,228,0.0,0.0,52,0.00,,SKC,0.00,VWS V14.01,2013-02-24 07:20:00,
2013-02-24 01:25:00,0.5,-13.0,29.96,SW,228,0.0,0.0,52,0.00,,SKC,0.00,VWS V14.01,2013-02-24 07:25:00,
2013-02-24 01:30:00,0.3,-13.1,29.96,SW,228,0.0,0.0,52,0.00,,SKC,0.00,VWS V14.01,2013-02-24 07:30:00,
2013-02-24 01:35:00,0.0,-13.5,29.96,SW,228,0.0,0.0,52,0.00,,SKC,0.00,VWS V14.01,2013-02-24 07:35:00,
2013-02-24 01:40:00,-0.4,-13.8,29.96,SW,228,0.0,0.0,52,0.00,,SKC,0.00,VWS V14.01,2013-02-24 07:40:00,
2013-02-24 01:45:00,-0.4,-13.8,29.96,SW,228,0.0,0.0,52,0.00,,SKC,0.00,VWS V14.01,2013-02-24 07:45:00,
2013-02-24 01:50:00,-0.4,-13.8,29.96,SW,228,4.0,4.0,52,0.00,,SKC,0.00,VWS V14.01,2013-02-24 07:50:00,
2013-02-24 01:55:00,-0.9,-14.3,29.96,SW,228,0.0,0.0,52,0.00,,SKC,0.00,VWS V14.01,2013-02-24 07:55:00,
2013-02-24 02:00:00,-1.1,-14.5,29.96,SW,228,0.0,0.0,52,0.00,,SKC,0.00,VWS V14.01,2013-02-24 08:00:00,
2013-02-24 02:05:00,-1.3,-14.6,29.96,SW,228,0.0,0.0,52,0.00,,SKC,0.00,VWS V14.01,2013-02-24 08:05:00,
2013-02-24 02:10:00,-0.9,-14.3,29.96,SW,228,0.0,0.0,52,0.00,,SKC,0.00,VWS V14.01,2013-02-24 08:10:00,
2013-02-24 02:15:00,-0.6,-14.0,29.96,SW,228,0.0,0.0,52,0.00,,SKC,0.00,VWS V14.01,2013-02-24 08:15:00,
2013-02-24 02:20:00,-0.2,-13.6,29.96,SW,228,0.0,0.0,52,0.00,,SKC,0.00,VWS V14.01,2013-02-24 08:20:00,
2013-02-24 02:25:00,0.0,-13.5,29.96,SW,228,0.0,0.0,52,0.00,,SKC,0.00,VWS V14.01,2013-02-24 08:25:00,
2013-02-24 02:30:00,-0.2,-13.6,29.96,SW,228,0.0,0.0,52,0.00,,SKC,0.00,VWS V14.01,2013-02-24 08:30:00,
2013-02-24 02:35:00,-0.9,-14.3,29.96,SW,228,0.0,0.0,52,0.00,,SKC,0.00,VWS V14.01,2013-02-24 08:35:00,
2013-02-24 02:40:00,-0.9,-14.3,29.96,SW,228,4.0,4.8,52,0.00,,SKC,0.00,VWS V14.01,2013-02-24 08:40:00,
2013-02-24 02:45:00,-1.3,-14.6,29.96,SW,228,0.0,0.0,52,0.00,,SKC,0.00,VWS V14.01,2013-02-24 08:45:00,
2013-02-24 02:50:00,-1.3,-14.6,29.96,SW,228,0.0,0.0,52,0.00,,SKC,0.00,VWS V14.01,2013-02-24 08:50:00,
2013-02-24 02:55:00,-1.3,-14.6,29.96,SW,228,0.0,0.0,52,0.00,,SKC,0.00,VWS V14.01,2013-02-24 08:55:00,
2013-02-24 03:01:00,-1.1,-14.5,29.96,SW,228,0.0,0.0,52,0.00,,SKC,0.00,VWS V14.01,2013-02-24 09:01:00,
2013-02-24 03:06:00,-0.4,-13.8,29.96,SW,228,0.0,0.0,52,0.00,,SKC,0.00,VWS V14.01,2013-02-24 09:06:00,
2013-02-24 03:11:00,-0.2,-13.6,29.96,SW,228,0.0,0.0,52,0.00,,SKC,0.00,VWS V14.01,2013-02-24 09:11:00,
2013-02-24 03:16:00,-0.4,-13.8,29.96,SW,228,0.0,0.0,52,0.00,,SKC,0.00,VWS V14.01,2013-02-24 09:16:00,
2013-02-24 03:21:00,-0.2,-13.6,29.96,SW,228,0.0,0.0,52,0.00,,SKC,0.00,VWS V14.01,2013-02-24 09:21:00,
2013-02-24 03:26:00,0.0,-13.5,29.96,SW,228,0.0,0.0,52,0.00,,SKC,0.00,VWS V14.01,2013-02-24 09:26:00,
2013-02-24 03:31:00,0.0,-13.5,29.96,SW,228,0.0,0.0,52,0.00,,SKC,0.00,VWS V14.01,2013-02-24 09:31:00,
2013-02-24 03:36:00,-0.2,-13.6,29.96,SW,228,0.0,0.0,52,0.00,,SKC,0.00,VWS V14.01,2013-02-24 09:36:00,
2013-02-24 03:41:00,-0.6,-14.0,29.96,SW,228,0.0,0.0,52,0.00,,SKC,0.00,VWS V14.01,2013-02-24 09:41:00,
2013-02-24 03:46:00,-0.8,-14.1,29.96,SW,228,0.0,0.0,52,0.00,,SKC,0.00,VWS V14.01,2013-02-24 09:46:00,
2013-02-24 03:51:00,-0.9,-14.3,29.96,SW,228,0.0,0.0,52,0.00,,SKC,0.00,VWS V14.01,2013-02-24 09:51:00,
2013-02-24 03:56:00,-1.1,-14.5,29.96,SW,228,0.0,0.0,52,0.00,,SKC,0.00,VWS V14.01,2013-02-24 09:56:00,
2013-02-24 04:01:00,-1.3,-14.6,29.96,SW,228,0.0,0.0,52,0.00,,SKC,0.00,VWS V14.01,2013-02-24 10:01:00,
2013-02-24 04:06:00,-1.3,-14.6,29.99,SW,228,0.0,0.0,52,0.00,,SKC,0.00,VWS V14.01,2013-02-24 10:06:00,
2013-02-24 04:11:00,-0.9,-14.3,29.99,SW,228,0.0,0.0,52,0.00,,SKC,0.00,VWS V14.01,2013-02-24 10:11:00,
2013-02-24 04:16:00,-0.6,-14.0,29.99,SW,228,0.0,0.0,52,0.00,,SKC,0.00,VWS V14.01,2013-02-24 10:16:00,
2013-02-24 04:21:00,-0.6,-14.0,29.99,SW,228,0.0,0.0,52,0.00,,SKC,0.00,VWS V14.01,2013-02-24 10:21:00,
2013-02-24 04:26:00,-0.4,-13.8,29.99,SW,228,0.0,0.0,52,0.00,,SKC,0.00,VWS V14.01,2013-02-24 10:26:00,
2013-02-24 04:31:00,0.0,-13.5,29.99,SW,228,0.0,0.0,52,0.00,,SKC,0.00,VWS V14.01,2013-02-24 10:31:00,
2013-02-24 04:36:00,-0.2,-13.6,29.99,SW,228,0.0,0.0,52,0.00,,SKC,0.00,VWS V14.01,2013-02-24 10:36:00,
2013-02-24 04:41:00,-0.2,-13.6,29.99,SW,228,0.0,0.0,52,0.00,,SKC,0.00,VWS V14.01,2013-02-24 10:41:00,
2013-02-24 04:46:00,-0.2,-13.6,29.99,SW,228,0.0,0.0,52,0.00,,SKC,0.00,VWS V14.01,2013-02-24 10:46:00,
2013-02-24 04:51:00,-0.6,-14.0,29.99,SW,228,4.8,4.8,52,0.00,,SKC,0.00,VWS V14.01,2013-02-24 10:51:00,
2013-02-24 04:56:00,-0.9,-14.3,29.99,SW,228,5.6,5.6,52,0.00,,SKC,0.00,VWS V14.01,2013-02-24 10:56:00,
2013-02-24 05:01:00,-1.7,-15.0,29.99,SW,228,0.0,0.0,52,0.00,,SKC,0.00,VWS V14.01,2013-02-24 11:01:00,
2013-02-24 05:06:00,-1.8,-15.2,29.99,SW,228,0.0,0.0,52,0.00,,SKC,0.00,VWS V14.01,2013-02-24 11:06:00,
2013-02-24 05:11:00,-1.8,-15.2,29.99,SW,228,0.0,0.0,52,0.00,,SKC,0.00,VWS V14.01,2013-02-24 11:11:00,
2013-02-24 05:16:00,-1.3,-14.6,29.99,SW,228,0.0,0.0,52,0.00,,SKC,0.00,VWS V14.01,2013-02-24 11:16:00,
2013-02-24 05:21:00,-1.3,-14.6,29.99,SW,228,0.0,0.0,52,0.00,,SKC,0.00,VWS V14.01,2013-02-24 11:21:00,
2013-02-24 05:26:00,-1.3,-14.6,29.99,SW,228,0.0,0.0,52,0.00,,SKC,0.00,VWS V14.01,2013-02-24 11:26:00,
2013-02-24 05:31:00,-1.3,-14.6,29.99,SW,228,0.0,0.0,52,0.00,,SKC,0.00,VWS V14.01,2013-02-24 11:31:00,
2013-02-24 05:36:00,-1.3,-14.6,29.99,SW,228,0.0,0.0,52,0.00,,SKC,0.00,VWS V14.01,2013-02-24 11:36:00,
2013-02-24 05:41:00,-1.1,-14.5,29.99,SW,228,0.0,0.0,52,0.00,,SKC,0.00,VWS V14.01,2013-02-24 11:41:00,
2013-02-24 05:46:00,-0.9,-14.3,29.99,SW,228,0.0,0.0,52,0.00,,SKC,0.00,VWS V14.01,2013-02-24 11:46:00,
2013-02-24 05:51:00,-0.6,-14.0,30.02,SW,228,0.0,4.0,52,0.00,,SKC,0.00,VWS V14.01,2013-02-24 11:51:00,
2013-02-24 05:56:00,-0.4,-13.8,30.02,SW,228,0.0,0.0,52,0.00,,SKC,0.00,VWS V14.01,2013-02-24 11:56:00,
2013-02-24 06:01:00,-0.6,-14.0,30.02,SW,228,0.0,0.0,52,0.00,,SKC,0.00,VWS V14.01,2013-02-24 12:01:00,
2013-02-24 06:06:00,-0.6,-14.0,30.02,SW,228,0.0,0.0,52,0.00,,SKC,0.00,VWS V14.01,2013-02-24 12:06:00,
2013-02-24 06:11:00,-0.6,-14.0,30.02,SW,228,0.0,0.0,52,0.00,,SKC,0.00,VWS V14.01,2013-02-24 12:11:00,
2013-02-24 06:16:00,-0.6,-14.0,30.02,SW,228,0.0,0.0,52,0.00,,SKC,0.00,VWS V14.01,2013-02-24 12:16:00,
2013-02-24 06:21:00,-0.6,-14.0,30.02,SW,228,0.0,0.0,52,0.00,,SKC,0.00,VWS V14.01,2013-02-24 12:21:00,
2013-02-24 06:26:00,-0.6,-14.0,30.02,SW,228,0.0,4.0,52,0.00,,SKC,0.00,VWS V14.01,2013-02-24 12:26:00,
2013-02-24 06:31:00,-0.9,-14.3,30.02,SW,228,0.0,4.0,52,0.00,,SKC,0.00,VWS V14.01,2013-02-24 12:31:00,
2013-02-24 06:37:00,-1.5,-14.8,29.99,SW,228,0.0,0.0,52,0.00,,SKC,0.00,VWS V14.01,2013-02-24 12:37:00,
2013-02-24 06:42:00,-1.7,-15.0,29.99,SW,228,0.0,4.0,52,0.00,,SKC,0.00,VWS V14.01,2013-02-24 12:42:00,
2013-02-24 06:47:00,-1.8,-15.2,29.99,SW,228,0.0,4.8,52,0.00,,SKC,0.00,VWS V14.01,2013-02-24 12:47:00,
2013-02-24 06:52:00,-1.8,-15.2,29.99,SW,228,0.0,0.0,52,0.00,,SKC,0.00,VWS V14.01,2013-02-24 12:52:00,
2013-02-24 06:59:00,-1.3,-14.6,29.99,SW,228,0.0,0.0,52,0.00,,SKC,0.00,VWS V14.01,2013-02-24 12:59:00,
2013-02-24 07:05:00,-0.9,-14.3,30.02,SW,228,0.0,0.0,52,0.00,,SKC,0.00,VWS V14.01,2013-02-24 13:05:00,
2013-02-24 07:11:00,-0.4,-13.8,30.02,SW,228,0.0,0.0,52,0.00,,SKC,0.00,VWS V14.01,2013-02-24 13:11:00,
2013-02-24 07:16:00,-0.2,-13.6,30.02,SW,228,0.0,0.0,52,0.00,,SKC,0.00,VWS V14.01,2013-02-24 13:16:00,
2013-02-24 07:22:00,0.5,-13.0,30.02,SW,228,0.0,0.0,52,0.00,,SKC,0.00,VWS V14.01,2013-02-24 13:22:00,
2013-02-24 07:27:00,1.2,-12.3,30.02,SW,228,0.0,0.0,52,0.00,,SKC,0.00,VWS V14.01,2013-02-24 13:27:00,
2013-02-24 07:33:00,1.6,-12.0,30.02,SW,228,0.0,0.0,52,0.00,,SKC,0.00,VWS V14.01,2013-02-24 13:33:00,
2013-02-24 07:38:00,2.3,-11.3,30.02,SW,228,0.0,0.0,52,0.00,,SKC,0.00,VWS V14.01,2013-02-24 13:38:00,
2013-02-24 07:43:00,3.2,-10.4,30.02,SW,228,0.0,0.0,52,0.00,,SKC,0.00,VWS V14.01,2013-02-24 13:43:00,
2013-02-24 07:48:00,4.1,-9.6,30.02,SW,228,0.0,0.0,52,0.00,,SKC,0.00,VWS V14.01,2013-02-24 13:48:00,
2013-02-24 07:53:00,4.3,-9.4,30.02,SW,228,0.0,0.0,52,0.00,,SKC,0.00,VWS V14.01,2013-02-24 13:53:00,
2013-02-24 07:58:00,4.5,-9.3,30.02,SW,228,0.0,0.0,52,0.00,,SKC,0.00,VWS V14.01,2013-02-24 13:58:00,
2013-02-24 08:03:00,4.8,-8.9,30.02,SW,228,0.0,0.0,52,0.00,,SKC,0.00,VWS V14.01,2013-02-24 14:03:00,
2013-02-24 08:08:00,4.6,-9.1,30.02,SW,228,4.8,4.8,52,0.00,,SKC,0.00,VWS V14.01,2013-02-24 14:08:00,
2013-02-24 08:13:00,4.8,-8.9,30.02,SW,228,0.0,0.0,52,0.00,,SKC,0.00,VWS V14.01,2013-02-24 14:13:00,
2013-02-24 08:18:00,5.2,-8.6,30.02,SW,228,0.0,4.8,52,0.00,,SKC,0.00,VWS V14.01,2013-02-24 14:18:00,
2013-02-24 08:23:00,6.1,-7.8,30.02,SW,228,4.8,4.8,52,0.00,,SKC,0.00,VWS V14.01,2013-02-24 14:23:00,
2013-02-24 08:28:00,7.0,-6.9,30.02,SW,228,0.0,0.0,52,0.00,,SKC,0.00,VWS V14.01,2013-02-24 14:28:00,
2013-02-24 08:33:00,7.2,-6.8,30.02,SW,228,0.0,0.0,52,0.00,,SKC,0.00,VWS V14.01,2013-02-24 14:33:00,
2013-02-24 08:38:00,7.7,-6.2,30.02,SW,228,0.0,0.0,52,0.00,,SKC,0.00,VWS V14.01,2013-02-24 14:38:00,
2013-02-24 08:43:00,8.6,-5.4,30.02,SW,228,0.0,0.0,52,0.00,,SKC,0.00,VWS V14.01,2013-02-24 14:43:00,
2013-02-24 08:48:00,9.7,-4.4,30.02,SW,228,0.0,0.0,52,0.00,,SKC,0.00,VWS V14.01,2013-02-24 14:48:00,
2013-02-24 08:53:00,9.7,-4.4,30.05,SW,228,0.0,0.0,52,0.00,,SKC,0.00,VWS V14.01,2013-02-24 14:53:00,
2013-02-24 08:58:00,10.6,-3.6,30.05,SW,228,0.0,0.0,52,0.00,,SKC,0.00,VWS V14.01,2013-02-24 14:58:00,
2013-02-24 09:03:00,10.9,-3.2,30.05,SW,228,0.0,0.0,52,0.00,,SKC,0.00,VWS V14.01,2013-02-24 15:03:00,
2013-02-24 09:08:00,11.7,-2.5,30.05,SW,228,4.8,4.8,52,0.00,,SKC,0.00,VWS V14.01,2013-02-24 15:08:00,
2013-02-24 09:13:00,12.2,-2.0,30.05,SW,228,4.8,4.8,52,0.00,,SKC,0.00,VWS V14.01,2013-02-24 15:13:00,
2013-02-24 09:18:00,13.1,-1.2,30.05,SW,228,4.0,4.8,52,0.00,,SKC,0.00,VWS V14.01,2013-02-24 15:18:00,
2013-02-24 09:23:00,13.8,-0.5,30.05,SW,228,0.0,0.0,52,0.00,,SKC,0.00,VWS V14.01,2013-02-24 15:23:00,
2013-02-24 09:29:00,14.9,2.0,30.05,SE,124,4.0,5.6,56,0.00,,SKC,0.00,VWS V14.01,2013-02-24 15:29:00,
2013-02-24 09:34:00,16.3,3.8,30.05,SE,128,0.0,0.0,57,0.00,,SKC,0.00,VWS V14.01,2013-02-24 15:34:00,
2013-02-24 09:39:00,16.5,4.0,30.05,ESE,122,6.4,7.2,57,0.00,,SKC,0.00,VWS V14.01,2013-02-24 15:39:00,
2013-02-24 09:44:00,18.7,6.0,30.05,ESE,106,4.0,5.6,57,0.00,,SKC,0.00,VWS V14.01,2013-02-24 15:44:00,
2013-02-24 09:49:00,21.0,7.4,30.05,SE,129,5.6,5.6,55,0.00,,SKC,0.00,VWS V14.01,2013-02-24 15:49:00,
2013-02-24 09:54:00,20.7,6.2,30.05,ESE,117,4.8,5.6,53,0.00,,SKC,0.00,VWS V14.01,2013-02-24 15:54:00,
2013-02-24 09:59:00,21.0,6.6,30.05,SSE,159,6.4,7.2,53,0.00,,SKC,0.00,VWS V14.01,2013-02-24 15:59:00,
2013-02-24 10:04:00,20.3,5.5,30.05,SSE,147,0.0,4.8,52,0.00,,SKC,0.00,VWS V14.01,2013-02-24 16:04:00,
2013-02-24 10:09:00,21.6,6.7,30.05,SSE,161,7.2,7.2,52,0.00,,SKC,0.00,VWS V14.01,2013-02-24 16:09:00,
2013-02-24 10:14:00,20.5,5.7,30.05,SE,132,10.5,10.5,52,0.00,,SKC,0.00,VWS V14.01,2013-02-24 16:14:00,
2013-02-24 10:19:00,20.5,6.1,30.05,SE,129,6.4,10.5,53,0.00,,SKC,0.00,VWS V14.01,2013-02-24 16:19:00,
2013-02-24 10:24:00,20.3,6.3,30.05,SE,129,6.4,6.4,54,0.00,,SKC,0.00,VWS V14.01,2013-02-24 16:24:00,
2013-02-24 10:29:00,21.2,6.8,30.05,SE,143,4.0,5.6,53,0.00,,SKC,0.00,VWS V14.01,2013-02-24 16:29:00,
2013-02-24 10:34:00,21.9,7.0,30.05,East,79,6.4,6.4,52,0.00,,SKC,0.00,VWS V14.01,2013-02-24 16:34:00,
2013-02-24 10:39:00,21.2,6.3,30.05,ESE,109,5.6,8.9,52,0.00,,SKC,0.00,VWS V14.01,2013-02-24 16:39:00,
2013-02-24 10:44:00,22.6,8.1,30.05,SE,129,4.0,4.0,53,0.00,,SKC,0.00,VWS V14.01,2013-02-24 16:44:00,
2013-02-24 10:49:00,22.6,7.7,30.05,East,89,5.6,5.6,52,0.00,,SKC,0.00,VWS V14.01,2013-02-24 16:49:00,
2013-02-24 10:54:00,22.8,7.8,30.05,SSE,154,5.6,5.6,52,0.00,,SKC,0.00,VWS V14.01,2013-02-24 16:54:00,
2013-02-24 10:59:00,24.4,8.9,30.05,ESE,117,4.8,4.8,51,0.00,,SKC,0.00,VWS V14.01,2013-02-24 16:59:00,
2013-02-24 11:04:00,23.7,7.8,30.05,SE,136,6.4,8.9,50,0.00,,SKC,0.00,VWS V14.01,2013-02-24 17:04:00,
2013-02-24 11:09:00,23.9,8.0,30.05,ESE,104,7.2,7.2,50,0.00,,SKC,0.00,VWS V14.01,2013-02-24 17:09:00,
2013-02-24 11:14:00,24.1,8.1,30.05,East,95,7.2,7.2,50,0.00,,SKC,0.00,VWS V14.01,2013-02-24 17:14:00,
2013-02-24 11:19:00,23.9,8.4,30.05,ENE,75,4.8,8.9,51,0.00,,SKC,0.00,VWS V14.01,2013-02-24 17:19:00,
2013-02-24 11:24:00,25.2,9.6,30.05,SE,145,8.9,8.9,51,0.00,,SKC,0.00,VWS V14.01,2013-02-24 17:24:00,
2013-02-24 11:29:00,25.0,9.0,30.05,SE,146,0.0,11.3,50,0.00,,SKC,0.00,VWS V14.01,2013-02-24 17:29:00,
2013-02-24 11:35:00,23.5,8.1,30.08,ESE,116,12.9,14.5,51,0.00,,SKC,0.00,VWS V14.01,2013-02-24 17:35:00,
2013-02-24 11:40:00,24.8,9.7,30.08,SE,139,4.8,5.6,52,0.00,,SKC,0.00,VWS V14.01,2013-02-24 17:40:00,
2013-02-24 11:45:00,25.5,9.0,30.08,East,85,9.7,10.5,49,0.00,,SKC,0.00,VWS V14.01,2013-02-24 17:45:00,
2013-02-24 11:50:00,25.2,9.6,30.08,East,89,7.2,11.3,51,0.00,,SKC,0.00,VWS V14.01,2013-02-24 17:50:00,
2013-02-24 11:55:00,25.5,9.5,30.08,East,93,6.4,6.4,50,0.00,,SKC,0.00,VWS V14.01,2013-02-24 17:55:00,
2013-02-24 12:00:00,25.5,9.9,30.08,East,100,7.2,10.5,51,0.00,,SKC,0.00,VWS V14.01,2013-02-24 18:00:00,
2013-02-24 12:05:00,26.4,10.8,30.05,South,172,5.6,9.7,51,0.00,,SKC,0.00,VWS V14.01,2013-02-24 18:05:00,
2013-02-24 12:10:00,28.4,11.7,30.05,SE,145,8.9,8.9,49,0.00,,SKC,0.00,VWS V14.01,2013-02-24 18:10:00,
2013-02-24 12:15:00,26.1,8.6,30.05,ENE,72,9.7,9.7,47,0.00,,SKC,0.00,VWS V14.01,2013-02-24 18:15:00,
2013-02-24 12:20:00,27.3,10.2,30.05,SE,142,11.3,11.3,48,0.00,,SKC,0.00,VWS V14.01,2013-02-24 18:20:00,
2013-02-24 12:25:00,25.9,8.9,30.05,SE,140,6.4,11.3,48,0.00,,SKC,0.00,VWS V14.01,2013-02-24 18:25:00,
2013-02-24 12:30:00,26.4,10.3,30.05,South,175,9.7,11.3,50,0.00,,SKC,0.00,VWS V14.01,2013-02-24 18:30:00,
2013-02-24 12:35:00,26.4,9.9,30.05,SE,135,5.6,6.4,49,0.00,,SKC,0.00,VWS V14.01,2013-02-24 18:35:00,
2013-02-24 12:40:00,26.1,9.5,30.05,ESE,104,6.4,7.2,49,0.00,,SKC,0.00,VWS V14.01,2013-02-24 18:40:00,
2013-02-24 12:45:00,26.6,10.0,30.05,East,98,8.9,8.9,49,0.00,,SKC,0.00,VWS V14.01,2013-02-24 18:45:00,
2013-02-24 12:51:00,27.1,10.5,30.05,ENE,70,10.5,10.5,49,0.00,,SKC,0.00,VWS V14.01,2013-02-24 18:51:00,
2013-02-24 12:56:00,26.8,10.2,30.05,ENE,64,9.7,11.3,49,0.00,,SKC,0.00,VWS V14.01,2013-02-24 18:56:00,
2013-02-24 13:01:00,27.5,11.3,30.05,East,93,7.2,9.7,50,0.00,,SKC,0.00,VWS V14.01,2013-02-24 19:01:00,
2013-02-24 13:06:00,27.1,10.1,30.05,ESE,110,13.7,13.7,48,0.00,,SKC,0.00,VWS V14.01,2013-02-24 19:06:00,
2013-02-24 13:11:00,27.0,10.4,30.05,SE,124,11.3,13.7,49,0.00,,SKC,0.00,VWS V14.01,2013-02-24 19:11:00,
2013-02-24 13:16:00,27.7,11.0,30.05,East,98,5.6,6.4,49,0.00,,SKC,0.00,VWS V14.01,2013-02-24 19:16:00,
2013-02-24 13:21:00,28.9,11.7,30.05,SE,133,6.4,8.9,48,0.00,,SKC,0.00,VWS V14.01,2013-02-24 19:21:00,
2013-02-24 13:26:00,28.6,10.9,30.05,SE,132,14.9,14.9,47,0.00,,SKC,0.00,VWS V14.01,2013-02-24 19:26:00,
2013-02-24 13:31:00,28.4,11.7,30.05,East,100,9.7,11.3,49,0.00,,SKC,0.00,VWS V14.01,2013-02-24 19:31:00,
2013-02-24 13:37:00,28.9,11.7,30.05,SSE,149,7.2,9.7,48,0.00,,SKC,0.00,VWS V14.01,2013-02-24 19:37:00,
2013-02-24 13:42:00,28.6,10.9,30.05,SE,131,9.7,9.7,47,0.00,,SKC,0.00,VWS V14.01,2013-02-24 19:42:00,
2013-02-24 13:47:00,29.5,12.2,30.05,ESE,112,0.0,4.0,48,0.00,,SKC,0.00,VWS V14.01,2013-02-24 19:47:00,
2013-02-24 13:52:00,28.9,11.2,30.05,ESE,114,4.8,5.6,47,0.00,,SKC,0.00,VWS V14.01,2013-02-24 19:52:00,
2013-02-24 13:57:00,30.4,12.6,30.05,SE,146,10.5,10.5,47,0.00,,SKC,0.00,VWS V14.01,2013-02-24 19:57:00,
2013-02-24 14:02:00,29.1,11.9,30.05,NE,45,7.2,7.2,48,0.00,,SKC,0.00,VWS V14.01,2013-02-24 20:02:00,
2013-02-24 14:07:00,29.5,11.8,30.05,ESE,110,7.2,9.7,47,0.00,,SKC,0.00,VWS V14.01,2013-02-24 20:07:00,
2013-02-24 14:12:00,28.6,11.4,30.05,East,87,11.3,11.3,48,0.00,,SKC,0.00,VWS V14.01,2013-02-24 20:12:00,
2013-02-24 14:17:00,28.6,11.9,30.05,East,101,11.3,11.3,49,0.00,,SKC,0.00,VWS V14.01,2013-02-24 20:17:00,
2013-02-24 14:22:00,28.8,11.6,30.05,East,92,7.2,7.2,48,0.00,,SKC,0.00,VWS V14.01,2013-02-24 20:22:00,
2013-02-24 14:27:00,29.5,12.2,30.05,ESE,118,9.7,9.7,48,0.00,,SKC,0.00,VWS V14.01,2013-02-24 20:27:00,
2013-02-24 14:32:00,30.2,12.9,30.05,ENE,58,6.4,6.4,48,0.00,,SKC,0.00,VWS V14.01,2013-02-24 20:32:00,
2013-02-24 14:37:00,30.7,12.9,30.05,SE,136,5.6,5.6,47,0.00,,SKC,0.00,VWS V14.01,2013-02-24 20:37:00,
2013-02-24 14:42:00,31.1,12.8,30.05,East,82,4.8,6.4,46,0.00,,SKC,0.00,VWS V14.01,2013-02-24 20:42:00,
2013-02-24 14:47:00,29.7,11.9,30.05,ESE,108,9.7,9.7,47,0.00,,SKC,0.00,VWS V14.01,2013-02-24 20:47:00,
2013-02-24 14:52:00,29.8,12.1,30.05,ESE,106,6.4,9.7,47,0.00,,SKC,0.00,VWS V14.01,2013-02-24 20:52:00,
2013-02-24 14:57:00,30.2,12.9,30.05,SE,138,7.2,8.1,48,0.00,,SKC,0.00,VWS V14.01,2013-02-24 20:57:00,
2013-02-24 15:03:00,30.4,12.6,30.05,ESE,120,9.7,11.3,47,0.00,,SKC,0.00,VWS V14.01,2013-02-24 21:03:00,
2013-02-24 15:08:00,29.5,12.2,30.05,ESE,115,10.5,10.5,48,0.00,,SKC,0.00,VWS V14.01,2013-02-24 21:08:00,
2013-02-24 15:13:00,29.7,12.4,30.05,ENE,67,6.4,8.9,48,0.00,,SKC,0.00,VWS V14.01,2013-02-24 21:13:00,
2013-02-24 15:18:00,30.2,12.9,30.05,East,84,4.8,6.4,48,0.00,,SKC,0.00,VWS V14.01,2013-02-24 21:18:00,
2013-02-24 15:23:00,30.2,12.9,30.05,SE,128,4.8,6.4,48,0.00,,SKC,0.00,VWS V14.01,2013-02-24 21:23:00,
2013-02-24 15:28:00,30.4,13.1,30.05,East,85,6.4,10.5,48,0.00,,SKC,0.00,VWS V14.01,2013-02-24 21:28:00,
2013-02-24 15:33:00,30.7,13.4,30.05,ENE,75,8.1,8.1,48,0.00,,SKC,0.00,VWS V14.01,2013-02-24 21:33:00,
2013-02-24 15:38:00,30.6,12.7,30.02,East,87,4.8,6.4,47,0.00,,SKC,0.00,VWS V14.01,2013-02-24 21:38:00,
2013-02-24 15:43:00,30.0,12.7,30.02,SE,143,8.9,8.9,48,0.00,,SKC,0.00,VWS V14.01,2013-02-24 21:43:00,
2013-02-24 15:48:00,30.4,12.6,30.02,ESE,102,7.2,7.2,47,0.00,,SKC,0.00,VWS V14.01,2013-02-24 21:48:00,
2013-02-24 15:53:00,30.2,13.4,30.02,SSE,151,7.2,7.2,49,0.00,,SKC,0.00,VWS V14.01,2013-02-24 21:53:00,
2013-02-24 15:58:00,31.8,14.4,30.02,East,79,4.8,4.8,48,0.00,,SKC,0.00,VWS V14.01,2013-02-24 21:58:00,
2013-02-24 16:03:00,30.7,13.4,30.02,ESE,108,4.8,5.6,48,0.00,,SKC,0.00,VWS V14.01,2013-02-24 22:03:00,
2013-02-24 16:08:00,31.1,13.7,30.02,East,95,6.4,6.4,48,0.00,,SKC,0.00,VWS V14.01,2013-02-24 22:08:00,
2013-02-24 16:13:00,30.4,13.1,30.02,East,95,6.4,6.4,48,0.00,,SKC,0.00,VWS V14.01,2013-02-24 22:13:00,
2013-02-24 16:18:00,30.4,13.5,30.02,ESE,110,4.8,4.8,49,0.00,,SKC,0.00,VWS V14.01,2013-02-24 22:18:00,
2013-02-24 16:23:00,29.7,13.3,30.02,ESE,102,6.4,7.2,50,0.00,,SKC,0.00,VWS V14.01,2013-02-24 22:23:00,
2013-02-24 16:28:00,29.5,13.6,30.02,ESE,115,7.2,9.7,51,0.00,,SKC,0.00,VWS V14.01,2013-02-24 22:28:00,
2013-02-24 16:33:00,29.5,13.6,30.02,East,83,11.3,11.3,51,0.00,,SKC,0.00,VWS V14.01,2013-02-24 22:33:00,
2013-02-24 16:38:00,29.8,14.4,30.02,East,99,7.2,9.7,52,0.00,,SKC,0.00,VWS V14.01,2013-02-24 22:38:00,
2013-02-24 16:43:00,29.3,13.9,30.02,SE,143,6.4,6.4,52,0.00,,SKC,0.00,VWS V14.01,2013-02-24 22:43:00,
2013-02-24 16:48:00,29.1,13.7,30.02,ESE,115,4.8,7.2,52,0.00,,SKC,0.00,VWS V14.01,2013-02-24 22:48:00,
2013-02-24 16:53:00,28.6,13.6,30.05,ESE,121,7.2,7.2,53,0.00,,SKC,0.00,VWS V14.01,2013-02-24 22:53:00,
2013-02-24 16:58:00,28.9,14.0,30.05,ESE,109,0.0,0.0,53,0.00,,SKC,0.00,VWS V14.01,2013-02-24 22:58:00,
2013-02-24 17:03:00,29.1,14.1,30.05,East,93,7.2,8.9,53,0.00,,SKC,0.00,VWS V14.01,2013-02-24 23:03:00,
2013-02-24 17:08:00,28.6,13.6,30.02,East,81,8.9,8.9,53,0.00,,SKC,0.00,VWS V14.01,2013-02-24 23:08:00,
2013-02-24 17:13:00,28.4,13.9,30.02,ENE,73,5.6,5.6,54,0.00,,SKC,0.00,VWS V14.01,2013-02-24 23:13:00,
2013-02-24 17:18:00,28.4,13.9,30.02,NE,46,4.8,5.6,54,0.00,,SKC,0.00,VWS V14.01,2013-02-24 23:18:00,
2013-02-24 17:23:00,28.2,13.7,30.02,East,80,7.2,7.2,54,0.00,,SKC,0.00,VWS V14.01,2013-02-24 23:23:00,
2013-02-24 17:28:00,28.2,13.7,30.02,East,98,6.4,8.9,54,0.00,,SKC,0.00,VWS V14.01,2013-02-24 23:28:00,
2013-02-24 17:33:00,28.2,13.7,30.02,ENE,73,7.2,7.2,54,0.00,,SKC,0.00,VWS V14.01,2013-02-24 23:33:00,
2013-02-24 17:38:00,27.9,13.8,30.02,ESE,122,10.5,14.5,55,0.00,,SKC,0.00,VWS V14.01,2013-02-24 23:38:00,
2013-02-24 17:44:00,27.9,13.8,30.02,ESE,106,4.0,4.8,55,0.00,,SKC,0.00,VWS V14.01,2013-02-24 23:44:00,
2013-02-24 17:49:00,27.9,14.2,30.02,ESE,116,6.4,7.2,56,0.00,,SKC,0.00,VWS V14.01,2013-02-24 23:49:00,
2013-02-24 17:54:00,27.7,14.0,30.02,East,100,5.6,7.2,56,0.00,,SKC,0.00,VWS V14.01,2013-02-24 23:54:00,
2013-02-24 17:59:00,27.5,13.9,30.02,ESE,115,4.8,7.2,56,0.00,,SKC,0.00,VWS V14.01,2013-02-24 23:59:00,
2013-02-24 18:04:00,27.3,14.1,30.05,ESE,116,0.0,4.8,57,0.00,,SKC,0.00,VWS V14.01,2013-02-25 00:04:00,
2013-02-24 18:09:00,27.0,13.8,30.05,ESE,122,5.6,5.6,57,0.00,,SKC,0.00,VWS V14.01,2013-02-25 00:09:00,
2013-02-24 18:14:00,26.8,14.0,30.05,SE,130,4.8,4.8,58,0.00,,SKC,0.00,VWS V14.01,2013-02-25 00:14:00,
2013-02-24 18:19:00,26.6,14.2,30.05,ESE,116,0.0,0.0,59,0.00,,SKC,0.00,VWS V14.01,2013-02-25 00:19:00,
2013-02-24 18:24:00,26.2,13.5,30.05,ESE,117,0.0,0.0,58,0.00,,SKC,0.00,VWS V14.01,2013-02-25 00:24:00,
2013-02-24 18:29:00,26.1,13.7,30.05,ESE,118,4.8,5.6,59,0.00,,SKC,0.00,VWS V14.01,2013-02-25 00:29:00,
2013-02-24 18:34:00,26.1,13.7,30.05,ESE,117,0.0,0.0,59,0.00,,SKC,0.00,VWS V14.01,2013-02-25 00:34:00,
2013-02-24 18:39:00,25.9,13.9,30.05,ESE,117,0.0,0.0,60,0.00,,SKC,0.00,VWS V14.01,2013-02-25 00:39:00,
2013-02-24 18:44:00,25.9,14.3,30.05,ESE,117,0.0,0.0,61,0.00,,SKC,0.00,VWS V14.01,2013-02-25 00:44:00,
2013-02-24 18:49:00,25.9,14.3,30.05,ESE,117,4.8,5.6,61,0.00,,SKC,0.00,VWS V14.01,2013-02-25 00:49:00,
2013-02-24 18:54:00,25.9,14.7,30.05,ESE,110,5.6,5.6,62,0.00,,SKC,0.00,VWS V14.01,2013-02-25 00:54:00,
2013-02-24 18:59:00,25.7,14.5,30.05,ESE,110,0.0,4.0,62,0.00,,SKC,0.00,VWS V14.01,2013-02-25 00:59:00,
2013-02-24 19:04:00,25.9,14.7,30.05,ESE,113,0.0,4.0,62,0.00,,SKC,0.00,VWS V14.01,2013-02-25 01:04:00,
2013-02-24 19:09:00,26.1,14.8,30.05,ESE,111,6.4,7.2,62,0.00,,SKC,0.00,VWS V14.01,2013-02-25 01:09:00,
2013-02-24 19:14:00,26.1,14.5,30.05,ESE,122,6.4,6.4,61,0.00,,SKC,0.00,VWS V14.01,2013-02-25 01:14:00,
2013-02-24 19:19:00,26.1,14.5,30.05,ESE,121,0.0,5.6,61,0.00,,SKC,0.00,VWS V14.01,2013-02-25 01:19:00,
2013-02-24 19:24:00,26.1,14.1,30.05,ESE,115,4.8,7.2,60,0.00,,SKC,0.00,VWS V14.01,2013-02-25 01:24:00,
2013-02-24 19:30:00,26.2,14.3,30.05,ESE,104,4.0,4.8,60,0.00,,SKC,0.00,VWS V14.01,2013-02-25 01:30:00,
2013-02-24 19:35:00,26.2,13.9,30.05,SE,126,4.8,4.8,59,0.00,,SKC,0.00,VWS V14.01,2013-02-25 01:35:00,
2013-02-24 19:40:00,26.1,13.7,30.05,East,97,4.0,4.0,59,0.00,,SKC,0.00,VWS V14.01,2013-02-25 01:40:00,
2013-02-24 19:45:00,26.1,14.1,30.05,ESE,122,6.4,7.2,60,0.00,,SKC,0.00,VWS V14.01,2013-02-25 01:45:00,
2013-02-24 19:50:00,26.2,14.3,30.05,SE,144,9.7,9.7,60,0.00,,SKC,0.00,VWS V14.01,2013-02-25 01:50:00,
2013-02-24 19:55:00,26.4,14.4,30.05,SE,125,7.2,7.2,60,0.00,,SKC,0.00,VWS V14.01,2013-02-25 01:55:00,
2013-02-24 20:00:00,26.4,14.4,30.05,SE,141,0.0,4.8,60,0.00,,SKC,0.00,VWS V14.01,2013-02-25 02:00:00,
2013-02-24 20:05:00,26.2,14.6,30.05,SE,130,4.0,4.8,61,0.00,,SKC,0.00,VWS V14.01,2013-02-25 02:05:00,
2013-02-24 20:10:00,26.2,14.6,30.05,SE,145,0.0,0.0,61,0.00,,SKC,0.00,VWS V14.01,2013-02-25 02:10:00,
2013-02-24 20:15:00,26.4,14.8,30.05,SSE,155,4.8,4.8,61,0.00,,SKC,0.00,VWS V14.01,2013-02-25 02:15:00,
2013-02-24 20:20:00,26.4,14.8,30.05,SSW,200,6.4,6.4,61,0.00,,SKC,0.00,VWS V14.01,2013-02-25 02:20:00,
2013-02-24 20:25:00,26.4,14.8,30.05,South,181,4.8,4.8,61,0.00,,SKC,0.00,VWS V14.01,2013-02-25 02:25:00,
2013-02-24 20:30:00,26.4,14.8,30.05,SE,129,0.0,4.8,61,0.00,,SKC,0.00,VWS V14.01,2013-02-25 02:30:00,
2013-02-24 20:35:00,26.4,14.8,30.05,SE,128,6.4,6.4,61,0.00,,SKC,0.00,VWS V14.01,2013-02-25 02:35:00,
2013-02-24 20:40:00,26.4,14.8,30.05,SSW,199,0.0,4.0,61,0.00,,SKC,0.00,VWS V14.01,2013-02-25 02:40:00,
2013-02-24 20:45:00,26.4,14.8,30.05,South,179,4.8,5.6,61,0.00,,SKC,0.00,VWS V14.01,2013-02-25 02:45:00,
2013-02-24 20:50:00,26.6,15.0,30.05,South,189,0.0,4.0,61,0.00,,SKC,0.00,VWS V14.01,2013-02-25 02:50:00,
2013-02-24 20:55:00,26.8,15.1,30.05,SSE,153,4.0,4.8,61,0.00,,SKC,0.00,VWS V14.01,2013-02-25 02:55:00,
2013-02-24 21:00:00,26.8,14.8,30.05,SE,138,0.0,6.4,60,0.00,,SKC,0.00,VWS V14.01,2013-02-25 03:00:00,
2013-02-24 21:05:00,26.8,14.8,30.08,SE,138,0.0,0.0,60,0.00,,SKC,0.00,VWS V14.01,2013-02-25 03:05:00,
2013-02-24 21:10:00,26.8,14.8,30.08,SE,139,4.0,4.8,60,0.00,,SKC,0.00,VWS V14.01,2013-02-25 03:10:00,
2013-02-24 21:15:00,27.0,14.9,30.08,SE,138,4.0,4.8,60,0.00,,SKC,0.00,VWS V14.01,2013-02-25 03:15:00,
2013-02-24 21:20:00,27.0,14.9,30.08,SE,138,0.0,0.0,60,0.00,,SKC,0.00,VWS V14.01,2013-02-25 03:20:00,
2013-02-24 21:25:00,27.0,14.9,30.08,SE,143,0.0,0.0,60,0.00,,SKC,0.00,VWS V14.01,2013-02-25 03:25:00,
2013-02-24 21:30:00,27.0,14.9,30.08,SE,143,0.0,0.0,60,0.00,,SKC,0.00,VWS V14.01,2013-02-25 03:30:00,
2013-02-24 21:35:00,27.0,14.9,30.08,SE,143,0.0,0.0,60,0.00,,SKC,0.00,VWS V14.01,2013-02-25 03:35:00,
2013-02-24 21:40:00,27.0,14.9,30.08,SE,145,5.6,5.6,60,0.00,,SKC,0.00,VWS V14.01,2013-02-25 03:40:00,
2013-02-24 21:45:00,27.0,14.9,30.08,SSE,168,0.0,4.8,60,0.00,,SKC,0.00,VWS V14.01,2013-02-25 03:45:00,
2013-02-24 21:50:00,27.0,14.9,30.08,SSE,168,0.0,0.0,60,0.00,,SKC,0.00,VWS V14.01,2013-02-25 03:50:00,
2013-02-24 21:55:00,27.0,14.9,30.08,SSE,168,0.0,4.0,60,0.00,,SKC,0.00,VWS V14.01,2013-02-25 03:55:00,
2013-02-24 22:00:00,27.0,14.9,30.08,SSE,168,0.0,0.0,60,0.00,,SKC,0.00,VWS V14.01,2013-02-25 04:00:00,
2013-02-24 22:05:00,27.0,14.9,30.08,SSE,168,0.0,0.0,60,0.00,,SKC,0.00,VWS V14.01,2013-02-25 04:05:00,
2013-02-24 22:10:00,27.0,14.9,30.08,SSE,168,0.0,0.0,60,0.00,,SKC,0.00,VWS V14.01,2013-02-25 04:10:00,
2013-02-24 22:15:00,27.0,14.9,30.08,SSE,168,0.0,0.0,60,0.00,,SKC,0.00,VWS V14.01,2013-02-25 04:15:00,
2013-02-24 22:21:00,27.0,14.9,30.08,SSE,168,0.0,0.0,60,0.00,,SKC,0.00,VWS V14.01,2013-02-25 04:21:00,
2013-02-24 22:26:00,27.0,14.9,30.08,SSE,168,0.0,0.0,60,0.00,,SKC,0.00,VWS V14.01,2013-02-25 04:26:00,
2013-02-24 22:31:00,27.0,15.3,30.08,SSE,168,0.0,0.0,61,0.00,,SKC,0.00,VWS V14.01,2013-02-25 04:31:00,
2013-02-24 22:36:00,27.0,14.9,30.08,SSE,168,0.0,0.0,60,0.00,,SKC,0.00,VWS V14.01,2013-02-25 04:36:00,
2013-02-24 22:41:00,27.0,14.9,30.08,SSE,168,0.0,0.0,60,0.00,,SKC,0.00,VWS V14.01,2013-02-25 04:41:00,
2013-02-24 22:46:00,27.0,14.9,30.08,SSE,168,0.0,0.0,60,0.00,,SKC,0.00,VWS V14.01,2013-02-25 04:46:00,
2013-02-24 22:51:00,27.0,14.9,30.08,SSE,168,0.0,0.0,60,0.00,,SKC,0.00,VWS V14.01,2013-02-25 04:51:00,
2013-02-24 22:56:00,27.0,14.9,30.08,SSE,168,0.0,0.0,60,0.00,,SKC,0.00,VWS V14.01,2013-02-25 04:56:00,
2013-02-24 23:00:00,27.0,14.9,30.08,SSE,168,0.0,0.0,60,0.00,,SKC,0.00,VWS V14.01,2013-02-25 05:00:00,
2013-02-24 23:01:00,27.0,15.3,30.08,SSE,168,0.0,0.0,61,0.00,,SKC,0.00,VWS V14.01,2013-02-25 05:01:00,
2013-02-24 23:06:00,27.0,15.3,30.08,SSE,168,4.0,4.0,61,0.00,,SKC,0.00,VWS V14.01,2013-02-25 05:06:00,
2013-02-24 23:09:00,27.0,15.3,30.08,SSE,168,0.0,0.0,61,0.00,,SKC,0.00,VWS V14.01,2013-02-25 05:09:00,
2013-02-24 23:15:00,27.0,15.3,30.08,SSE,168,0.0,4.0,61,0.00,,SKC,0.00,VWS V14.01,2013-02-25 05:15:00,
2013-02-24 23:20:00,27.0,15.3,30.08,SSE,168,0.0,0.0,61,0.00,,SKC,0.00,VWS V14.01,2013-02-25 05:20:00,
2013-02-24 23:26:00,27.0,15.3,30.08,SSE,168,0.0,0.0,61,0.00,,SKC,0.00,VWS V14.01,2013-02-25 05:26:00,
2013-02-24 23:31:00,27.0,15.3,30.08,SSE,168,0.0,0.0,61,0.00,,SKC,0.00,VWS V14.01,2013-02-25 05:31:00,
2013-02-24 23:36:00,27.0,15.3,30.08,SSE,168,0.0,0.0,61,0.00,,SKC,0.00,VWS V14.01,2013-02-25 05:36:00,
2013-02-24 23:41:00,27.0,15.3,30.08,SSE,168,0.0,4.0,61,0.00,,SKC,0.00,VWS V14.01,2013-02-25 05:41:00,
2013-02-24 23:47:00,27.0,15.3,30.08,SSE,168,0.0,0.0,61,0.00,,SKC,0.00,VWS V14.01,2013-02-25 05:47:00,
2013-02-24 23:52:00,27.0,15.3,30.08,SSE,168,0.0,0.0,61,0.00,,SKC,0.00,VWS V14.01,2013-02-25 05:52:00,
2013-02-24 23:57:00,27.0,15.3,30.08,SSE,168,0.0,0.0,61,0.00,,SKC,0.00,VWS V14.01,2013-02-25 05:57:00,